Home   Weather   Klagenfurt   Past weeks

Flag for Austria Past Weather in Klagenfurt, Carinthia, Austria — Yesterday and Last 2 Weeks

Now
73 °F

Partly sunny.


Feels Like: 77 °F
Forecast: 51 / 73 °F
Wind: 3 mph from North

Location: Klagenfurt-Flughafen

Current Time: May 24, 2017 at 5:44:39 pm

Latest Report: May 24, 2017 at 4:50 pm


Visibility: N/A

Pressure: 30.01 "Hg

Humidity: 44%

Dew Point: 50 °F

Location of KlagenfurtLocation

Past Weather in Klagenfurt — Graph

°F

Klagenfurt Temperature Yesterday

Maximum temperature yesterday: 75 °F (at 4:20 pm)
Minimum temperature yesterday: 52 °F (at 2:50 am)
Average temperature yesterday: 61 °F

High & Low Weather Summary for the Past Weeks

 TemperatureHumidityPressure
High79 °F (May 18, 5:50 pm)100% (May 15, 3:50 am)30.42 "Hg (May 15, 3:50 am)
Low43 °F (May 10, 5:20 am)26% (May 19, 4:20 pm)29.68 "Hg (May 12, 4:20 am)
Average61 °F65%30.05 "Hg
* Reported May 9 4:20 pm — May 24 4:20 pm, Klagenfurt. Weather by CustomWeather, © 2017

Note: Actual official high and low records may vary slightly from our data, if they occured in-between our weather recording intervals... More about our weather records

Advertising

Klagenfurt Weather History for the Previous 24 Hours

Scroll right to see more
 ConditionsComfort  
Time TempWeatherWind HumidityBarometerVisibility
4:20 pm
Wed, May 24
73 °FPartly sunny.2 mph38%30.01 "HgN/A
3:50 pm72 °FPartly sunny.3 mph47%30.01 "HgN/A
3:20 pm72 °FScattered clouds.2 mph57%30.04 "HgN/A
2:50 pm70 °FPartly sunny.2 mph57%30.04 "HgN/A
2:20 pm68 °FPartly sunny.2 mph64%30.04 "HgN/A
1:50 pm68 °FPartly sunny.3 mph64%30.07 "HgN/A
1:20 pm68 °FPartly sunny.2 mph60%30.07 "HgN/A
12:50 pm66 °FBroken clouds.2 mph64%30.07 "HgN/A
12:20 pm66 °FBroken clouds.3 mph64%30.07 "HgN/A
11:50 am64 °FBroken clouds.3 mph64%30.09 "HgN/A
11:20 am64 °FBroken clouds.3 mph64%30.09 "HgN/A
10:50 am63 °FBroken clouds.1 mph68%30.09 "HgN/A
10:20 am63 °FPartly sunny.3 mph68%30.09 "HgN/A
9:50 am61 °FBroken clouds.2 mph72%30.09 "HgN/A
9:20 am61 °FPartly sunny.6 mph72%30.09 "HgN/A
8:50 am59 °FPartly sunny.3 mph82%30.09 "HgN/A
8:20 am59 °FPartly sunny.2 mph77%30.09 "HgN/A
7:50 am57 °FBroken clouds.2 mph82%30.09 "HgN/A
7:20 am57 °FBroken clouds.2 mph88%30.09 "HgN/A
6:50 am57 °FBroken clouds.2 mph88%30.09 "HgN/A
6:20 am55 °FPartly sunny.5 mph88%30.09 "HgN/A
5:50 am55 °FPartly sunny.3 mph94%30.09 "HgN/A
5:20 am55 °FBroken clouds.5 mph94%30.09 "HgN/A
4:50 am55 °FPartly cloudy.2 mph94%30.09 "HgN/A
4:20 am55 °FPassing clouds.2 mph88%30.09 "HgN/A
3:50 am55 °FPassing clouds.3 mph88%30.09 "HgN/A
3:20 am57 °FPassing clouds.3 mph88%30.09 "HgN/A
2:50 am57 °FPartly cloudy.6 mph88%30.12 "HgN/A
2:20 am57 °FPartly cloudy.2 mph88%30.12 "HgN/A
1:50 am59 °FLight rain. Passing clouds.2 mph77%30.12 "HgN/A
1:20 am59 °FLight rain. Passing clouds.2 mph82%30.12 "HgN/A
12:50 am57 °FLight rain. Passing clouds.3 mph82%30.12 "HgN/A
12:20 am57 °FPassing clouds.3 mph82%30.12 "HgN/A
11:50 pm
Tue, May 23
59 °FPartly cloudy.3 mph77%30.09 "HgN/A
11:20 pm61 °FPartly cloudy.2 mph72%30.09 "HgN/A
10:50 pm64 °FPartly cloudy.7 mph52%30.09 "HgN/A
10:20 pm59 °FPartly cloudy.5 mph88%30.09 "HgN/A
9:50 pm59 °FPartly cloudy.6 mph88%30.07 "HgN/A
9:20 pm59 °FPassing clouds.6 mph88%30.07 "HgN/A
8:50 pm59 °FPassing clouds.2 mph88%30.07 "HgN/A
8:20 pm59 °FBroken clouds.3 mph88%30.04 "HgN/A
7:50 pm61 °FThunderstorms. Scattered clouds.5 mph83%30.04 "HgN/A
7:20 pm73 °FThunderstorms. Scattered clouds.5 mph50%30.01 "HgN/A
6:50 pm73 °FScattered clouds.2 mph50%30.01 "HgN/A
6:20 pm75 °FScattered clouds.2 mph39%29.98 "HgN/A
5:50 pm75 °FPassing clouds.3 mph39%29.98 "HgN/A
5:20 pm75 °FPassing clouds.1 mph36%29.98 "HgN/A
Weather by CustomWeather, © 2017

See weather overviewHow to use our weather pages